Regional Weather Roundup
Issued by NWS

Home | Current Version | Previous Version | Text Only | Print | Product List | Glossary Off
Versions: 1 2 3 4 5 6 7 8 9 10 11 12 13 14 15 16 17 18 19 20 21 22 23 24 25 26 27 28 29 30 31 32 33 34 35 36 37 38 39 40 41 42 43 44 45 46 47 48 49 50

000
ASUS43 KLMK 200202
RWRKY
KENTUCKY REGIONAL WEATHER ROUNDUP
NATIONAL WEATHER SERVICE LOUISVILLE KY
1000 PM EDT SUN OCT 19 2014

NOTE "FAIR" INDICATES FEW OR NO CLOUDS BELOW 12,000 FEET
WITH NO SIGNIFICANT WEATHER AND/OR OBSTRUCTIONS TO VISIBILITY.

KYZ001>023-026-027-061>063-070>075-200300-
WESTERN AND SOUTH CENTRAL KENTUCKY

CITY           SKY/WX    TMP DP  RH WIND       PRES   REMARKS
PADUCAH        CLOUDY    50  47  89 SW5       30.09S
HENDERSON      PTCLDY    45  39  81 CALM      30.10S
OWENSBORO      MOCLDY    50  45  83 CALM      30.10F
HOPKINSVILLE   MOCLDY    53  48  83 CALM      30.10F HAZE
BOWLING GREEN  MOCLDY    51  45  79 CALM      30.11F
GLASGOW        NOT AVBL
$$

KYZ024-025-028>034-038-045-046-053-200300-
NORTH CENTRAL KENTUCKY

CITY           SKY/WX    TMP DP  RH WIND       PRES   REMARKS
LOUISVILLE/SDF MOCLDY    51  44  77 SW12      30.09F
LOUISVILLE/LOU PTCLDY    49  42  77 CALM      30.10F
FORT KNOX      MOCLDY    46  44  91 CALM      30.08F
$$

KYZ035>037-039>044-047>052-055>060-089>105-200300-
NORTHEAST KENTUCKY

CITY           SKY/WX    TMP DP  RH WIND       PRES   REMARKS
LEXINGTON      PTCLDY    49  42  77 SE7       30.09F
COVINGTON      MOCLDY    47  40  76 CALM      30.08F
FRANKFORT      PTCLDY    45  41  86 CALM      30.08F
$$

KYZ054-064>069-076>088-106>120-200300-
SOUTHEAST KENTUCKY

CITY           SKY/WX    TMP DP  RH WIND       PRES   REMARKS
JACKSON        PTCLDY    48  39  71 CALM      30.12S
LONDON         MOCLDY    46  42  86 CALM      30.13S
SOMERSET       MOCLDY    45  45 100 CALM      30.13F
MIDDLESBORO    NOT AVBL
MONTICELLO     MOCLDY    44  42  93 CALM      30.14S FOG
$$



USA.gov is the U.S. government's official web portal to all federal, state and local government web resources and services.